Regional Weather Roundup
Issued by NWS

Home | Current Version | Previous Version | Graphics & Text | Print | Product List | Glossary On
Versions: 1 2 3 4 5 6 7 8 9 10 11 12 13 14 15 16 17 18 19 20 21 22 23 24 25 26 27 28 29 30 31 32 33 34 35 36 37 38 39 40 41 42 43 44 45 46 47 48 49 50
000
ASUS44 KMEG 231300
RWRTN
TENNESSEE HOURLY STATE WEATHER ROUNDUP
NATIONAL WEATHER SERVICE MEMPHIS TN
800 AM CDT WED APR 23 2014

TNZ002-004-019-021-049-052-054-088>092-231400-
WEST TENNESSEE

CITY           SKY/WX    TMP DP  RH WIND       PRES   REMARKS
MEMPHIS INTL   MOSUNNY   58  42  55 NE8       30.05R
NWS MEMPHIS      N/A     57 N/A N/A MISG        N/A
JACKSON        SUNNY     52  44  74 CALM      30.06R
DYERSBURG      SUNNY     54  37  54 NE5       30.08S
UNION CITY     SUNNY     52  43  71 NE3       30.07R
LEXINGTON      SUNNY     52  43  71 NE5       30.05R
$$

TNZ008-025-027-028-033-062-065-066-231400-
NORTH MIDDLE TENNESSEE

CITY           SKY/WX    TMP DP  RH WIND       PRES   REMARKS
NASHVILLE      SUNNY     53  35  50 NE9       30.08R
CLARKSVILLE    SUNNY     51  37  58 E12       30.09R
CROSSVILLE     SUNNY     48  30  49 NE10      30.04R
$$

TNZ061-075-076-078-094-096-097-231400-
SOUTH MIDDLE TENNESSEE

CITY           SKY/WX    TMP DP  RH WIND       PRES   REMARKS
TULLAHOMA      SUNNY     54  36  50 N7        30.04R
WINCHESTER     SUNNY     52  43  71 CALM      30.04R
COLUMBIA       SUNNY     52  46  82 CALM      30.04R
$$

TNZ017-018-042-046-047-231400-
NORTHEAST TENNESSEE

CITY           SKY/WX    TMP DP  RH WIND       PRES   REMARKS
TRI CITIES     SUNNY     51  25  36 W3        29.99R
ELIZABETHTON   SUNNY     50  25  37 CALM      29.98R
$$

TNZ012-013-036-069-073-074-231400-
CENTRAL EAST TENNESSEE

CITY           SKY/WX    TMP DP  RH WIND       PRES   REMARKS
KNOXVILLE      MOSUNNY   53  34  48 NE9       30.03R
OAK RIDGE      SUNNY     53  31  42 NE8       30.05R
$$

TNZ083-085-099-231400-
SOUTHEAST TENNESSEE

CITY           SKY/WX    TMP DP  RH WIND       PRES   REMARKS
CHATTANOOGA    SUNNY     56  35  45 N17       30.02R
$$

SKY/WX REPORTED AS FAIR MEANS FEW OR NO CLOUDS BELOW
12 THOUSAND FEET.




USA.gov is the U.S. government's official web portal to all federal, state and local government web resources and services.